Portada
METAR-TAF:

METAR-TAF

Aeroports :

Cooma, Austràlia

latitud: 36-18-00S, longitud: 148-58-24E, altitud: 947 m

Observació

L'informe es va fer fa 1 hora i 15 minuts, a les 19:00 UTC
Vent 3 kt del Est
Temperatura 5°C
Humitat 75%
Pressió 1014 hPa
Visibilitat 10 km o més

METAR: YCOM 131900Z AUTO 10003KT 9999 // NCD 05/01 Q1014

Hora: 07:15 (20:15 UTC)


TAF: manca

Observacions i pronòstics meteorològics de més de 4000 aeroports (METAR i TAF).

Les estacions disponibles són els punts grocs i vermells al mapa.

Posi el ratolí al punt desitjat per veure el nom de l'estació.

Feu clic per veure les observacions i els pronòstics meteorològics.

Per canviar el mapa: feu clic els botons verds amb una creu de color negre per apropar; al botó verd amb un guió per allunyar la imatge; o en les fletxes verdes per a mapes adjacents.


METAR-TAF: